Printer-friendly version

IAU Minor Planet Center

Minor Planet Center

MPEC 2006-E28 : 2004 EH96

The following Minor Planet Electronic Circular may be linked-to from your own Web pages, but must not otherwise be redistributed electronically.


Read MPEC 2006-E27 Read MPEC 2006-E29


M.P.E.C. 2006-E28                                Issued 2006 Mar. 6, 22:56 UT

     The Minor Planet Electronic Circulars contain information on unusual
         minor planets and routine data on comets.  They are published
   on behalf of Commission 20 of the International Astronomical Union by the
          Minor Planet Center, Smithsonian Astrophysical Observatory,
                          Cambridge, MA 02138, U.S.A.

                  Supported in part by the Brinson Foundation
                  Supported in part by the TABASGO Foundation
             Prepared using the Tamkin Foundation Computer Network

                              MPC@CFA.HARVARD.EDU
          URL http://cfa-www.harvard.edu/iau/mpc.html  ISSN 1523-6714

                                   2004 EH96

                           Revision to MPEC 2004-N02

Additional Observations:
     K04E96H  C2005 02 09.42608 12 13 45.51 -03 52 19.0          22.8 R EE028688
     K04E96H  C2005 02 09.50277 12 13 45.15 -03 52 17.7                 EE028688
     K04E96H  C2006 02 25.39460 12 22 42.60 -04 43 18.5          23.0 R EE028688
     K04E96H  C2006 02 25.51254 12 22 42.00 -04 43 14.7                 EE028688

Observer details:
688 Lowell Observatory, Anderson Mesa Station.  Observer L. H. Wasserman.
    1.8-m Perkins telescope + CCD.

First and last observations above in comparison with prediction:
Residuals in seconds of arc and reference
050209 688  1.6-  1.4+    060225 688  5.8-  2.7+    MPO 66346

Orbital elements:
2004 EH96
Epoch 2006 Mar. 6.0 TT = JDT 2453800.5                  MPC
M   9.83396              (2000.0)            P               Q
n   0.00393261     Peri.  301.57386     -0.97649129     -0.21192295
a  39.7510487      Node   226.22412     +0.21161074     -0.90762801
e   0.2850443      Incl.    3.12908     +0.04105680     -0.36235350
P 251              H    8.3           G   0.15           U   4
Residuals in seconds of arc
040315 695  0.0   0.1+    040507 568  0.1-  0.1+    050209 688  0.3+  0.3+
040316 695  0.0   0.1+    040507 568  0.0   0.2-    050209 688  0.3-  0.2-
040316 695  0.1+  0.0     040507 568  0.0   0.1+    060225 688  0.1-  0.0
040421 568  0.0   0.1-    040508 568  0.1+  0.1+    060225 688  0.1+  0.0
040421 568  0.0   0.0     040715 807  0.0   0.1-
040422 568  0.0   0.1-    040716 807  0.1-  0.1-

Ephemeris:
2004 EH96                a,e,i = 39.75, 0.29, 3                  q = 28.420
Date    TT    R. A. (2000) Decl.     Delta      r     Elong.  Phase     V
2006 03 06    12 21.93   -04 38.4   27.819   28.743   158.2     0.7    22.9
2006 03 16    12 20.95   -04 32.2   27.770   28.745   168.4     0.4    22.9
2006 03 26    12 19.93   -04 25.5   27.751   28.748   177.6     0.1    22.8
2006 04 05    12 18.90   -04 18.6   27.762   28.750   170.8     0.3    22.9
2006 04 15    12 17.92   -04 11.8   27.803   28.753   160.9     0.7    22.9
2006 04 25    12 17.01   -04 05.4   27.873   28.756   150.9     1.0    23.0
2006 05 05    12 16.22   -03 59.7   27.968   28.758   141.0     1.3    23.0
2006 05 15    12 15.58   -03 54.8   28.086   28.761   131.1     1.5    23.0
2006 05 25    12 15.11   -03 50.9   28.223   28.763   121.4     1.7    23.1
2006 06 04    12 14.82   -03 48.1   28.375   28.766   111.7     1.9    23.1
2006 06 14    12 14.74   -03 46.6   28.538   28.769   102.1     2.0    23.1
2006 06 24    12 14.86   -03 46.5   28.707   28.771    92.6     2.0    23.1
2006 07 04    12 15.19   -03 47.7   28.877   28.774    83.2     2.0    23.1
2006 07 14    12 15.73   -03 50.2   29.044   28.777    73.8     1.9    23.1
2006 07 24    12 16.45   -03 54.0   29.203   28.779    64.4     1.8    23.1
2006 08 03    12 17.35   -03 59.0   29.350   28.782    55.1     1.7    23.1
2006 08 13    12 18.41   -04 05.1   29.481   28.785    45.8     1.4    23.1
2006 08 23    12 19.61   -04 12.2   29.593   28.787    36.6     1.2    23.1

Brian G. Marsden             (C) Copyright 2006 MPC           M.P.E.C. 2006-E28

Read MPEC 2006-E27 Read MPEC 2006-E29


Our Web policy. Index to the CBAT/MPC/ICQ pages.


Valid HTML 4.01!